[[{"header":{"parameterUnit":"m.s-1","parameterCategory":1,"la1":30.2991,"la2":30.254,"lo1":-89.0895,"lo2":-89.0444,"dy":0.0017,"dx":0.0017,"nx":28,"ny":28,"refTime":"2023-08-30T09:00:00:Z","depth":0,"parameterNumber":2,"parameterNumberName":"U-component_of_WINDS"},"data":[0,0,0,0,0,0,0,0,0,0,0,0,0,0,0,0,0,0,0,0,0,0,0,0,0,0,0,0,0,0,0,0,0,0,0,0,0,0,0,0,0,0,0,0,0,0,0,0,0,0,0,0,0,0,0,0,0,0,-1.7974,-1.7974,0,-1.802,-1.802,-1.8021,-1.8001,-1.8,-1.7998,-1.7997,-1.8046,-1.8048,-1.805,0,0,0,0,0,0,0,0,0,0,0,0,0,-1.787,-1.7872,-1.7974,-1.7974,-1.7975,-1.802,-1.802,-1.8021,-1.8001,-1.8,-1.7998,-1.7997,-1.8045,-1.8048,-1.8051,0,0,0,0,0,0,0,0,0,0,0,0,0,-1.7915,-1.7872,-1.7974,-1.797,-1.797,-1.802,-1.802,-1.8021,-1.8001,-1.8,-1.7998,-1.7996,-1.8044,-1.8047,-1.8051,-1.8106,0,0,-1.8062,-1.8063,0,0,0,0,0,0,0,0,-1.7913,-1.7919,-1.797,-1.7971,-1.7971,-1.8003,-1.8001,-1.805,-1.8002,-1.799,-1.7997,-1.7995,-1.8033,-1.8037,-1.805,-1.8109,-1.8111,-1.8062,-1.8064,-1.8066,-1.8067,0,0,0,0,0,0,0,-1.7909,-1.7917,-1.7992,-1.7971,-1.7971,-1.7967,-1.7971,-1.801,-1.802,-1.799,-1.7989,-1.7995,-1.8033,-1.8046,-1.8051,-1.8111,-1.8062,-1.8065,-1.8067,-1.8068,-1.8219,-1.8221,0,0,0,0,0,0,-1.7906,-1.7914,-1.799,-1.7993,-1.7937,-1.797,-1.7975,-1.7994,-1.802,-1.8022,-1.7996,-1.7994,-1.8041,-1.8047,-1.8052,-1.812,-1.8066,-1.8069,-1.8071,-1.8217,-1.822,-1.8222,0,0,0,0,0,0,-1.7904,-1.7913,-1.7989,-1.7954,-1.7963,-1.7974,-1.7995,-1.7996,-1.801,-1.8024,-1.8026,-1.8008,-1.804,-1.8047,-1.8093,-1.8121,-1.807,-1.8074,-1.8215,-1.8218,-1.8221,-1.8255,0,0,0,0,0,0,-1.7901,-1.7912,-1.7933,-1.7954,-1.7965,-1.8029,-1.7997,-1.7998,-1.8015,-1.8013,-1.8036,-1.8038,-1.8039,-1.8088,-1.8097,-1.8125,-1.8076,-1.8213,-1.8216,-1.822,-1.8251,-1.8258,-1.8264,0,0,0,0,0,-1.7897,-1.7941,-1.7935,-1.7944,-1.7991,-1.803,-1.8036,-1.8037,-1.8018,-1.8039,-1.8049,-1.8037,-1.8116,-1.8093,-1.8102,-1.8132,-1.8211,-1.8215,-1.8219,-1.8248,-1.8257,-1.8264,0,0,0,0,0,0,-1.7924,-1.7944,-1.7937,-1.7988,-1.8008,-1.8027,-1.8054,-1.8046,-1.8071,-1.8068,-1.8067,-1.8072,-1.812,-1.813,-1.8104,-1.8188,-1.8161,-1.8167,-1.8179,-1.8188,-1.8194,-1.8191,-1.8079,0,0,0,0,0,-1.7936,-1.7966,-1.7981,-1.8026,-1.8036,-1.8043,-1.806,-1.8059,-1.8079,-1.8087,-1.81,-1.812,-1.8149,-1.8169,-1.8197,-1.8252,-1.8257,-1.8277,-1.8284,-1.8289,-1.8295,-1.8326,-1.8335,-1.8236,-1.8236,-1.8236,0,0,-1.7961,-1.7975,-1.7994,-1.8031,-1.8046,-1.8077,-1.805,-1.8084,-1.8108,-1.8092,-1.8137,-1.8147,-1.8169,-1.822,-1.8243,-1.823,-1.8324,-1.8295,-1.8299,-1.8302,-1.8331,-1.8341,-1.8349,-1.8239,-1.8238,-1.8238,0,0,-1.8022,-1.8036,-1.8074,-1.809,-1.8112,-1.8117,-1.8126,-1.8147,-1.8153,-1.8197,-1.8186,-1.8214,-1.8264,-1.8281,-1.8296,-1.8364,-1.8355,-1.8373,-1.8409,-1.8439,-1.8447,-1.8454,-1.8479,-1.8488,-1.8379,-1.8379,-1.8379,0,-1.8051,-1.8097,-1.8095,-1.8131,-1.8148,-1.8134,-1.8174,-1.8189,-1.822,-1.8232,-1.8217,-1.828,-1.8294,-1.835,-1.8366,-1.8379,-1.839,-1.8371,-1.8445,-1.8452,-1.8459,-1.8483,-1.8492,-1.8381,-1.8381,-1.8381,-1.838,0,-1.8131,-1.8164,-1.8192,-1.8222,-1.8242,-1.8279,-1.8284,-1.8304,-1.8301,-1.8307,-1.8353,-1.8369,-1.8401,-1.8413,-1.841,-1.8468,-1.846,-1.8445,-1.8418,-1.8471,-1.8493,-1.8502,-1.8384,-1.8383,-1.8383,-1.8382,0,0,-1.8212,-1.824,-1.8251,-1.8264,-1.8288,-1.8313,-1.835,-1.838,-1.8398,-1.842,-1.8451,-1.8494,-1.8481,-1.8498,-1.8497,-1.8523,-1.8577,-1.8505,-1.8506,-1.8519,-1.8643,-1.8655,-1.8665,-1.857,-1.8572,-1.8573,-1.8641,0,-1.8276,-1.834,-1.834,-1.8399,-1.843,-1.8417,-1.845,-1.8468,-1.8475,-1.8502,-1.8509,-1.854,-1.852,-1.853,-1.8555,-1.8565,-1.8602,-1.856,-1.86,-1.8602,-1.8596,-1.8677,-1.869,-1.8753,-1.865,-1.8652,-1.8653,0,-1.836,-1.8384,-1.8447,-1.8466,-1.8479,-1.8508,-1.8536,-1.8561,-1.8582,-1.8585,-1.8605,-1.8599,-1.8637,-1.8608,-1.8661,-1.8632,-1.8649,-1.8656,-1.8659,-1.8663,-1.8631,-1.8685,-1.8773,-1.8783,-1.8666,-1.8665,-1.8664,0,-1.8414,-1.8462,-1.8506,-1.8518,-1.8541,-1.8562,-1.8573,-1.8592,-1.861,-1.8635,-1.8647,-1.8675,-1.8691,-1.8713,-1.8716,-1.8695,-1.877,-1.8741,-1.8774,-1.8774,-1.8792,-1.8791,-1.8885,-1.88,-1.88,-1.88,-1.88,0,-1.8487,-1.8526,-1.853,-1.8558,-1.8601,-1.86,-1.8643,-1.8652,-1.8669,-1.8698,-1.8689,-1.8717,-1.8718,-1.8746,-1.8749,-1.8793,-1.88,-1.8804,-1.8804,-1.8806,-1.8805,-1.8817,-1.8813,-1.8802,-1.8802,-1.8801,-1.8801,0,-1.8555,-1.8559,-1.8607,-1.8625,-1.8631,-1.8662,-1.8678,-1.8704,-1.871,-1.8747,-1.8755,-1.8765,-1.8798,-1.8802,-1.8841,-1.8842,-1.8895,-1.889,-1.8889,-1.8888,-1.8922,-1.8919,-1.9028,-1.9043,-1.8947,-1.8948,-1.8949,0,-1.8602,-1.8631,-1.8653,-1.8672,-1.8684,-1.8714,-1.8732,-1.8732,-1.8752,-1.8778,-1.8801,-1.8833,-1.8859,-1.8912,-1.8923,-1.8952,-1.8949,-1.8985,-1.8953,-1.8954,-1.8951,-1.895,-1.8953,-1.8991,-1.8992,-1.8993,-1.8994,0,-1.8684,-1.8685,-1.8712,-1.874,-1.8763,-1.8785,-1.8806,-1.8821,-1.8824,-1.8847,-1.888,-1.89,-1.894,-1.8972,-1.9001,-1.9013,-1.9005,-1.9003,-1.9013,-1.9015,-1.9014,-1.9016,-1.8907,-1.9001,-1.9001,-1.9,-1.9,-1.8999,-1.8744,-1.877,-1.879,-1.882,-1.8836,-1.8856,-1.8881,-1.889,-1.8918,-1.895,-1.8948,-1.8985,-1.9005,-1.9043,-1.9057,-1.9086,-1.9075,-1.9088,-1.9092,-1.9096,-1.91,-1.9008,-1.9091,-1.9091,-1.9091,-1.9091,-1.9091,0,-1.8828,-1.884,-1.8868,-1.8897,-1.8921,-1.891,-1.8932,-1.8954,-1.8986,-1.9005,-1.9031,-1.907,-1.9101,-1.9113,-1.9144,-1.9165,-1.9162,-1.9173,-1.9172,-1.9175,-1.9108,-1.9097,-1.9175,-1.9175,-1.9175,-1.9175,-1.9175,-1.9175,-1.8874,-1.8918,-1.8921,-1.8973,-1.8984,-1.9021,-1.9034,-1.9053,-1.9068,-1.9112,-1.9137,-1.9145,-1.9162,-1.9194,-1.9222,-1.9225,-1.9237,-1.925,-1.9252,-1.9189,-1.918,-1.9172,-1.9162,-1.9253,-1.9253,-1.9317,-1.9318,-1.9318]},{"header":{"parameterUnit":"m.s-1","parameterCategory":1,"la1":30.2991,"la2":30.254,"lo1":-89.0895,"lo2":-89.0444,"dy":0.0017,"dx":0.0017,"nx":28,"ny":28,"refTime":"2023-08-30T09:00:00:Z","depth":0,"parameterNumber":3,"parameterNumberName":"V-component_of_WINDS"},"data":[0,0,0,0,0,0,0,0,0,0,0,0,0,0,0,0,0,0,0,0,0,0,0,0,0,0,0,0,0,0,0,0,0,0,0,0,0,0,0,0,0,0,0,0,0,0,0,0,0,0,0,0,0,0,0,0,0,0,-2.651,-2.651,0,-2.6517,-2.6517,-2.6517,-2.649,-2.649,-2.6489,-2.6488,-2.6495,-2.6496,-2.6497,0,0,0,0,0,0,0,0,0,0,0,0,0,-2.6471,-2.6472,-2.651,-2.651,-2.651,-2.6517,-2.6517,-2.6517,-2.649,-2.649,-2.6489,-2.6488,-2.6494,-2.6496,-2.6497,0,0,0,0,0,0,0,0,0,0,0,0,0,-2.6484,-2.6472,-2.651,-2.6497,-2.6496,-2.6517,-2.6517,-2.6518,-2.6491,-2.6489,-2.6488,-2.6487,-2.6494,-2.6495,-2.6497,-2.653,0,0,-2.6501,-2.6502,0,0,0,0,0,0,0,0,-2.6483,-2.6486,-2.6499,-2.6498,-2.6497,-2.6502,-2.6506,-2.6522,-2.6491,-2.6493,-2.6488,-2.6487,-2.6498,-2.6499,-2.6503,-2.653,-2.653,-2.6501,-2.6502,-2.6503,-2.6503,0,0,0,0,0,0,0,-2.6483,-2.6485,-2.6513,-2.6499,-2.6498,-2.6491,-2.6492,-2.6509,-2.6502,-2.6493,-2.6491,-2.6492,-2.6497,-2.6502,-2.6503,-2.653,-2.6501,-2.6502,-2.6503,-2.6504,-2.6585,-2.6587,0,0,0,0,0,0,-2.6483,-2.6484,-2.6512,-2.6513,-2.6487,-2.6493,-2.6493,-2.6501,-2.6502,-2.6501,-2.6493,-2.6491,-2.65,-2.6501,-2.6503,-2.6542,-2.6503,-2.6504,-2.6505,-2.6584,-2.6586,-2.6587,0,0,0,0,0,0,-2.6483,-2.6486,-2.6512,-2.6498,-2.6501,-2.6495,-2.6504,-2.6502,-2.6507,-2.6502,-2.6501,-2.6499,-2.6499,-2.6501,-2.6523,-2.6542,-2.6505,-2.6506,-2.6583,-2.6585,-2.6586,-2.662,0,0,0,0,0,0,-2.6482,-2.6486,-2.6499,-2.6499,-2.6502,-2.6533,-2.6505,-2.6503,-2.6509,-2.6506,-2.6507,-2.6506,-2.6498,-2.6522,-2.6525,-2.6543,-2.6507,-2.6581,-2.6583,-2.6586,-2.6618,-2.6623,-2.6628,0,0,0,0,0,-2.648,-2.6507,-2.6499,-2.6503,-2.6517,-2.6534,-2.6536,-2.6526,-2.6511,-2.6523,-2.6521,-2.6506,-2.6539,-2.6524,-2.6528,-2.6547,-2.658,-2.6583,-2.6586,-2.6615,-2.6622,-2.6628,0,0,0,0,0,0,-2.6509,-2.6507,-2.6498,-2.6526,-2.653,-2.6529,-2.6545,-2.6534,-2.6542,-2.6539,-2.6526,-2.6527,-2.6551,-2.6551,-2.6534,-2.6579,-2.6557,-2.6561,-2.6578,-2.6585,-2.659,-2.659,-2.6508,0,0,0,0,0,-2.6519,-2.6532,-2.653,-2.6555,-2.6557,-2.6551,-2.6558,-2.655,-2.6554,-2.6555,-2.6554,-2.6558,-2.6569,-2.6577,-2.6587,-2.6617,-2.6617,-2.6632,-2.6637,-2.6642,-2.6645,-2.6662,-2.6669,-2.6597,-2.6597,-2.6597,0,0,-2.6539,-2.6539,-2.6549,-2.6561,-2.6563,-2.6578,-2.6552,-2.6569,-2.6579,-2.6557,-2.6579,-2.6578,-2.6582,-2.6608,-2.662,-2.6609,-2.6665,-2.6646,-2.6649,-2.665,-2.6666,-2.6673,-2.6679,-2.6599,-2.6599,-2.6598,0,0,-2.6582,-2.6584,-2.6606,-2.6609,-2.6613,-2.6608,-2.6614,-2.6614,-2.6613,-2.6635,-2.6619,-2.6631,-2.6651,-2.6654,-2.6658,-2.6704,-2.6692,-2.6708,-2.6736,-2.6752,-2.6758,-2.6763,-2.678,-2.6786,-2.6711,-2.6711,-2.6712,0,-2.6606,-2.6628,-2.6618,-2.6635,-2.6641,-2.6623,-2.6644,-2.6648,-2.6655,-2.6659,-2.6647,-2.6672,-2.6673,-2.67,-2.6712,-2.6716,-2.6721,-2.6708,-2.6758,-2.6763,-2.6767,-2.6783,-2.6789,-2.6713,-2.6713,-2.6713,-2.6713,0,-2.6658,-2.6673,-2.669,-2.6698,-2.6706,-2.6725,-2.6718,-2.6727,-2.6718,-2.6715,-2.6737,-2.6738,-2.6748,-2.6754,-2.6746,-2.6781,-2.6774,-2.676,-2.6738,-2.6776,-2.6791,-2.6797,-2.6716,-2.6716,-2.6715,-2.6715,0,0,-2.672,-2.6723,-2.6729,-2.6733,-2.6736,-2.6748,-2.6766,-2.6777,-2.6785,-2.6791,-2.6806,-2.6824,-2.6811,-2.6816,-2.6808,-2.6822,-2.6859,-2.6806,-2.6806,-2.6817,-2.6898,-2.691,-2.6917,-2.6851,-2.6852,-2.6853,-2.6898,0,-2.6763,-2.6796,-2.6787,-2.682,-2.6834,-2.6817,-2.6833,-2.6837,-2.6835,-2.6846,-2.6844,-2.6856,-2.6838,-2.6841,-2.6855,-2.6852,-2.6876,-2.6849,-2.6865,-2.6866,-2.6866,-2.6924,-2.6936,-2.6979,-2.6904,-2.6905,-2.6906,0,-2.6818,-2.6827,-2.6861,-2.6863,-2.6869,-2.6884,-2.6893,-2.6904,-2.6908,-2.6906,-2.6912,-2.6901,-2.692,-2.6897,-2.6923,-2.6904,-2.6911,-2.6911,-2.6912,-2.6913,-2.6889,-2.6928,-2.6992,-2.6999,-2.6915,-2.6914,-2.6913,0,-2.6861,-2.6881,-2.6904,-2.6908,-2.6911,-2.6922,-2.6923,-2.6926,-2.6933,-2.6941,-2.6946,-2.6956,-2.6961,-2.6969,-2.6962,-2.6946,-2.6988,-2.6965,-2.6987,-2.6987,-2.6997,-2.6996,-2.7063,-2.7,-2.7,-2.7,-2.7,0,-2.691,-2.6932,-2.6923,-2.6938,-2.6961,-2.6952,-2.6975,-2.6975,-2.6978,-2.6992,-2.6977,-2.699,-2.6979,-2.6992,-2.6986,-2.7008,-2.701,-2.7009,-2.7007,-2.701,-2.7011,-2.7015,-2.7012,-2.7002,-2.7001,-2.7001,-2.7001,0,-2.6962,-2.6957,-2.6981,-2.6982,-2.6983,-2.7001,-2.7001,-2.7014,-2.7011,-2.7029,-2.7033,-2.7028,-2.7041,-2.7034,-2.7048,-2.7045,-2.7073,-2.7067,-2.7072,-2.7071,-2.7093,-2.7091,-2.7165,-2.7175,-2.7105,-2.7106,-2.7106,0,-2.6994,-2.7011,-2.7014,-2.7022,-2.7025,-2.7039,-2.7047,-2.7037,-2.7046,-2.7052,-2.7065,-2.7077,-2.7087,-2.711,-2.7107,-2.7118,-2.7112,-2.7138,-2.7114,-2.7117,-2.7113,-2.7113,-2.7114,-2.7142,-2.7143,-2.7144,-2.7144,0,-2.7052,-2.7049,-2.7061,-2.7072,-2.7082,-2.709,-2.7096,-2.7104,-2.7095,-2.7105,-2.712,-2.7127,-2.7142,-2.7155,-2.7164,-2.7166,-2.7154,-2.7152,-2.7158,-2.7161,-2.7164,-2.7163,-2.7086,-2.715,-2.715,-2.7149,-2.7149,-2.7149,-2.7095,-2.711,-2.7114,-2.7128,-2.7132,-2.7139,-2.7152,-2.7151,-2.7163,-2.7174,-2.7168,-2.7185,-2.7189,-2.7201,-2.7204,-2.7217,-2.7206,-2.7215,-2.7217,-2.7219,-2.7222,-2.7162,-2.7218,-2.7218,-2.7218,-2.7218,-2.7218,0,-2.7153,-2.7156,-2.7168,-2.7179,-2.719,-2.7178,-2.7185,-2.7195,-2.721,-2.7215,-2.7225,-2.7242,-2.7254,-2.7253,-2.7264,-2.7275,-2.727,-2.7278,-2.7278,-2.7278,-2.723,-2.7224,-2.7282,-2.7282,-2.7282,-2.7282,-2.7282,-2.7282,-2.7185,-2.7208,-2.7206,-2.7231,-2.7233,-2.725,-2.7255,-2.7262,-2.7266,-2.7285,-2.7296,-2.7295,-2.7298,-2.7309,-2.732,-2.732,-2.7325,-2.7335,-2.7333,-2.7288,-2.7281,-2.7275,-2.727,-2.7336,-2.7336,-2.7379,-2.738,-2.738]}]]